Welcome to the updated website with new and more accurate equipment. Established 2007


Active alerts


No alerts

Mount Mesnard more information Mount Mesnard


Lower Harbor more information Lower Harbor


Visit our other weather sites:

Template documentation
and downloads

And another site


Weather Underground History page Text

Daily Summary for April 28, 2017 Units:  English    Metric   Both
« Previous Day
Next Day »
Daily Weekly Monthly Yearly Custom
  Current: High: Low: Average:
Temperature: 35.3 °F 35.7 °F 29.6 °F 31.6 °F
Dew Point: 30.0 °F 31.0 °F 27.0 °F 28.1 °F
Humidity: 81 % 91 % 79 % 87 %
Wind Speed: 2.0 mph 12.0 mph 0.0 mph 2 mph
Wind Gust: 10.0 mph 12.0 mph - -
Wind:WNW - - WSW
Pressure: 29.84 in 29.84 in 29.67 in -
Precipitation: 0.05 in      
Historical Graphs
 
 
Tabular Data for April 28, 2017
Time Temperature Dew Point Pressure Wind Wind Speed Wind Gust Humidity Rainfall Rate (Hourly)
00:08 30.5 °F 28.0 °F 29.67 in SSW 1.0 mph 5.0 mph 89 % 0.00 in
00:23 30.6 °F 28.0 °F 29.67 in SW 4.0 mph 5.0 mph 89 % 0.00 in
00:38 30.5 °F 28.0 °F 29.67 in Calm   8.0 mph 89 % 0.00 in
00:54 30.6 °F 28.0 °F 29.67 in WNW 1.0 mph 3.0 mph 89 % 0.00 in
01:08 30.6 °F 28.0 °F 29.68 in West 1.0 mph 7.0 mph 89 % 0.00 in
01:24 30.7 °F 28.0 °F 29.68 in Calm   6.0 mph 88 % 0.00 in
01:39 30.6 °F 28.0 °F 29.68 in NW 2.0 mph 5.0 mph 89 % 0.00 in
01:54 30.6 °F 28.0 °F 29.68 in Calm   4.0 mph 89 % 0.00 in
02:09 30.5 °F 28.0 °F 29.69 in Calm   3.0 mph 89 % 0.00 in
02:23 30.5 °F 28.0 °F 29.69 in SSW 1.0 mph 4.0 mph 89 % 0.00 in
02:39 30.5 °F 27.0 °F 29.70 in SSW 1.0 mph 6.0 mph 88 % 0.00 in
02:54 30.5 °F 27.0 °F 29.70 in SSW 1.0 mph 7.0 mph 88 % 0.00 in
03:09 30.6 °F 28.0 °F 29.70 in WSW 2.0 mph 5.0 mph 88 % 0.00 in
03:24 30.5 °F 27.0 °F 29.70 in SSW 4.0 mph 6.0 mph 88 % 0.00 in
03:39 30.5 °F 27.0 °F 29.71 in WSW 2.0 mph 4.0 mph 88 % 0.00 in
03:54 30.4 °F 27.0 °F 29.71 in Calm   4.0 mph 87 % 0.00 in
04:09 30.5 °F 27.0 °F 29.72 in Calm   8.0 mph 88 % 0.00 in
04:24 30.3 °F 27.0 °F 29.72 in SSE 4.0 mph 8.0 mph 88 % 0.00 in
04:39 30.1 °F 27.0 °F 29.72 in WNW 1.0 mph 7.0 mph 88 % 0.00 in
04:54 29.7 °F 27.0 °F 29.72 in West 3.0 mph 4.0 mph 89 % 0.00 in
05:09 29.6 °F 27.0 °F 29.72 in Calm   5.0 mph 91 % 0.00 in
05:24 29.8 °F 27.0 °F 29.73 in WSW 2.0 mph 5.0 mph 90 % 0.00 in
05:39 30.1 °F 27.0 °F 29.73 in Calm   8.0 mph 88 % 0.00 in
05:54 30.4 °F 27.0 °F 29.74 in WNW 1.0 mph 7.0 mph 88 % 0.00 in
06:09 30.4 °F 27.0 °F 29.74 in SSW 1.0 mph 4.0 mph 88 % 0.00 in
06:39 30.3 °F 27.0 °F 29.76 in SE 2.0 mph 4.0 mph 88 % 0.00 in
06:54 30.4 °F 28.0 °F 29.76 in Calm   3.0 mph 89 % 0.00 in
07:09 30.5 °F 28.0 °F 29.77 in WNW 2.0 mph 3.0 mph 90 % 0.00 in
07:24 30.7 °F 28.0 °F 29.77 in NW 2.0 mph 4.0 mph 90 % 0.00 in
07:39 31.1 °F 28.0 °F 29.77 in West 3.0 mph 5.0 mph 87 % 0.00 in
08:09 31.8 °F 28.0 °F 29.78 in West 2.0 mph 9.0 mph 86 % 0.00 in
08:24 32.1 °F 28.0 °F 29.78 in West 1.0 mph 5.0 mph 86 % 0.00 in
08:40 32.4 °F 29.0 °F 29.79 in WNW 2.0 mph 4.0 mph 86 % 0.00 in
08:55 32.9 °F 28.0 °F 29.79 in WNW 4.0 mph 8.0 mph 83 % 0.00 in
09:10 33.2 °F 29.0 °F 29.79 in West 2.0 mph 8.0 mph 83 % 0.00 in
09:25 33.6 °F 29.0 °F 29.79 in West 6.0 mph 9.0 mph 84 % 0.01 in
09:40 33.9 °F 30.0 °F 29.79 in WNW 1.0 mph 11.0 mph 84 % 0.01 in
09:55 34.1 °F 30.0 °F 29.80 in SSW 6.0 mph 7.0 mph 84 % 0.02 in
10:10 35.3 °F 31.0 °F 29.81 in WNW 1.0 mph 12.0 mph 83 % 0.02 in
10:25 35.7 °F 30.0 °F 29.81 in NW 4.0 mph 10.0 mph 81 % 0.02 in
10:40 35.1 °F 30.0 °F 29.82 in WNW 12.0 mph 12.0 mph 81 % 0.02 in
10:56 35.0 °F 30.0 °F 29.82 in West 3.0 mph 9.0 mph 81 % 0.02 in
11:10 35.3 °F 29.0 °F 29.82 in WSW 2.0 mph 8.0 mph 79 % 0.02 in
11:25 35.0 °F 30.0 °F 29.84 in NE 3.0 mph 10.0 mph 81 % 0.02 in
11:40 35.3 °F 30.0 °F 29.84 in WNW 2.0 mph 10.0 mph 81 % 0.02 in
Big Bay Weather
Compliments of Weather Underground - 768 kb

Script developed by  Jim McMurry - jmcmurry@mwt.net Adapted for the template by  Wim van der Kuil - Leuven-Template.eu

You find our weather info also at:

Weather Underground

Midwestern Weather Network

WeatherlinkIP

Citizen Weather Observer Program (CWOP)

Equipment we use:

Weather-station
Davis VP2

Weather-program
Davis Weatherlink.Com

Davis VP2

Davis Weatherlink.Com